| time (UTC) | temp C | wind direction | speed KPH | gust KPH | rain 1hr cm | rain 24hr cm | rain mn cm | humidity % | barometer mb |
| 20260906155203 | 26 | 120 | 1.6 | 6.4 | 0.00 | 0.00 | 0.00 | 80 | 1016.3 |
| 20260906154703 | 26 | 239 | 1.6 | 6.4 | 0.00 | 0.00 | 0.00 | 79 | 1016.6 |
| 20260906154202 | 26 | 212 | 3.2 | 4.8 | 0.00 | 0.00 | 0.00 | 79 | 1016.6 |
| 20260906153703 | 26 | 120 | 1.6 | 4.8 | 0.00 | 0.00 | 0.00 | 78 | 1016.3 |
| 20260906153203 | 26 | 196 | 3.2 | 9.7 | 0.00 | 0.00 | 0.00 | 79 | 1016.2 |
| 20260906152702 | 26 | 195 | 4.8 | 9.7 | 0.00 | 0.00 | 0.00 | 79 | 1016.2 |
| 20260906152202 | 26 | 219 | 4.8 | 9.7 | 0.00 | 0.00 | 0.00 | 81 | 1016.3 |
| 20260906151702 | 26 | 183 | 3.2 | 9.7 | 0.00 | 0.00 | 0.00 | 82 | 1016.5 |
| 20260906151202 | 26 | 273 | 3.2 | 22.5 | 0.00 | 0.00 | 0.00 | 82 | 1016.7 |
| 20260906150702 | 26 | 144 | 8.0 | 22.5 | 0.00 | 0.00 | 0.00 | 81 | 1016.7 |
| 20260906150201 | 27 | 261 | 9.7 | 17.7 | 0.00 | 0.00 | 0.00 | 82 | 1016.9 |
| 20260906145202 | 26 | 146 | 4.8 | 12.9 | 0.00 | 0.00 | 0.00 | 82 | 1015.8 |
| 20260906144701 | 26 | 165 | 4.8 | 16.1 | 0.00 | 0.00 | 0.00 | 82 | 1015.7 |
| 20260906144201 | 26 | 171 | 9.7 | 16.1 | 0.00 | 0.00 | 0.00 | 82 | 1015.5 |
| 20260906143701 | 26 | 105 | 8.0 | 14.5 | 0.00 | 0.00 | 0.00 | 82 | 1015.6 |
| 20260906142700 | 26 | 168 | 11.3 | 17.7 | 0.00 | 0.00 | 0.00 | 82 | 1015.6 |
| 20260906141202 | 26 | 141 | 8.0 | 16.1 | 0.00 | 0.00 | 0.00 | 82 | 1015.6 |
| 20260906140700 | 26 | 120 | 6.4 | 16.1 | 0.00 | 0.00 | 0.00 | 82 | 1015.6 |
| 20260906140159 | 26 | 156 | 4.8 | 16.1 | 0.00 | 0.00 | 0.00 | 82 | 1015.7 |
| 20260906135159 | 26 | 138 | 4.8 | 14.5 | 0.00 | 0.00 | 0.00 | 81 | 1015.9 |
| 20260906134659 | 26 | 160 | 6.4 | 14.5 | 0.00 | 0.00 | 0.00 | 81 | 1015.9 |
| 20260906134159 | 26 | 128 | 6.4 | 16.1 | 0.00 | 0.00 | 0.00 | 81 | 1015.8 |
| 20260906133659 | 27 | 183 | 8.0 | 19.3 | 0.00 | 0.00 | 0.00 | 80 | 1015.7 |
| 20260906133158 | 27 | 139 | 8.0 | 19.3 | 0.00 | 0.00 | 0.00 | 81 | 1015.7 |
| 20260906132658 | 27 | 137 | 4.8 | 14.5 | 0.00 | 0.00 | 0.00 | 81 | 1015.8 |
| 20260906132157 | 27 | 178 | 4.8 | 12.9 | 0.00 | 0.00 | 0.00 | 82 | 1015.8 |
| 20260906131657 | 26 | 108 | 4.8 | 12.9 | 0.00 | 0.00 | 0.00 | 82 | 1015.7 |
| 20260906131159 | 26 | 130 | 4.8 | 12.9 | 0.00 | 0.00 | 0.00 | 83 | 1015.6 |
| 20260906130657 | 26 | 128 | 3.2 | 11.3 | 0.00 | 0.00 | 0.00 | 84 | 1015.6 |
| 20260906130156 | 26 | 117 | 3.2 | 14.5 | 0.00 | 0.00 | 0.00 | 84 | 1015.6 |
| 20260906125657 | 26 | 229 | 6.4 | 14.5 | 0.00 | 0.00 | 0.00 | 84 | 1015.7 |
| 20260906125156 | 26 | 115 | 3.2 | 11.3 | 0.00 | 0.00 | 0.00 | 84 | 1015.7 |
| 20260906124656 | 26 | 129 | 4.8 | 12.9 | 0.00 | 0.00 | 0.00 | 84 | 1015.7 |
| 20260906124156 | 25 | 115 | 6.4 | 14.5 | 0.00 | 0.00 | 0.00 | 84 | 1015.5 |
| 20260906123656 | 25 | 137 | 4.8 | 14.5 | 0.00 | 0.00 | 0.00 | 85 | 1015.4 |
| 20260906123155 | 25 | 144 | 3.2 | 11.3 | 0.00 | 0.00 | 0.00 | 85 | 1015.4 |
| 20260906122155 | 25 | 133 | 3.2 | 9.7 | 0.00 | 0.00 | 0.00 | 85 | 1015.2 |
| 20260906121657 | 25 | 131 | 3.2 | 11.3 | 0.00 | 0.00 | 0.00 | 85 | 1015.3 |
| 20260906121154 | 25 | 123 | 3.2 | 12.9 | 0.00 | 0.00 | 0.00 | 85 | 1015.2 |
| 20260906120655 | 25 | 108 | 4.8 | 12.9 | 0.00 | 0.00 | 0.00 | 85 | 1015.1 |
| 20260906120155 | 25 | 137 | 3.2 | 9.7 | 0.00 | 0.00 | 0.00 | 85 | 1015.1 |
| 20260906115655 | 25 | 124 | 6.4 | 9.7 | 0.00 | 0.00 | 0.00 | 85 | 1014.9 |
| 20260906115155 | 25 | 137 | 4.8 | 11.3 | 0.00 | 0.00 | 0.00 | 85 | 1014.9 |
| 20260906114655 | 25 | 113 | 3.2 | 11.3 | 0.00 | 0.00 | 0.00 | 85 | 1014.8 |
| 20260906114154 | 25 | 117 | 3.2 | 9.7 | 0.00 | 0.00 | 0.00 | 85 | 1014.7 |
| 20260906113654 | 25 | 133 | 3.2 | 8.0 | 0.00 | 0.00 | 0.00 | 85 | 1014.7 |
| 20260906113153 | 25 | 117 | 3.2 | 9.7 | 0.00 | 0.00 | 0.00 | 85 | 1014.7 |
| 20260906112653 | 25 | 126 | 3.2 | 11.3 | 0.00 | 0.00 | 0.00 | 85 | 1014.6 |
| 20260906111654 | 25 | 178 | 4.8 | 11.3 | 0.00 | 0.00 | 0.00 | 85 | 1014.7 |
| 20260906111153 | 25 | 144 | 4.8 | 11.3 | 0.00 | 0.00 | 0.00 | 85 | 1014.7 |
| 20260906110653 | 25 | 170 | 3.2 | 8.0 | 0.00 | 0.00 | 0.00 | 85 | 1014.8 |
| 20260906110152 | 25 | 178 | 1.6 | 6.4 | 0.00 | 0.00 | 0.00 | 85 | 1014.8 |
| 20260906105648 | 25 | 67 | 1.6 | 8.0 | 0.00 | 0.00 | 0.00 | 84 | 1014.8 |
| 20260906105147 | 25 | 102 | 3.2 | 8.0 | 0.00 | 0.00 | 0.00 | 84 | 1014.7 |
| 20260906104646 | 25 | 137 | 3.2 | 4.8 | 0.00 | 0.00 | 0.00 | 84 | 1014.8 |
| 20260906104147 | 25 | 128 | 1.6 | 4.8 | 0.00 | 0.00 | 0.00 | 84 | 1014.7 |
| 20260906103647 | 25 | 196 | 1.6 | 6.4 | 0.00 | 0.00 | 0.00 | 84 | 1014.6 |
| 20260906102646 | 25 | 136 | 3.2 | 9.7 | 0.00 | 0.00 | 0.00 | 84 | 1014.5 |
| 20260906102147 | 25 | 130 | 3.2 | 9.7 | 0.00 | 0.00 | 0.00 | 84 | 1014.4 |
| 20260906101145 | 25 | 137 | 3.2 | 6.4 | 0.00 | 0.00 | 0.00 | 83 | 1014.5 |
| 20260906100646 | 25 | 137 | 1.6 | 8.0 | 0.00 | 0.00 | 0.00 | 84 | 1014.4 |
| 20260906100145 | 25 | 158 | 3.2 | 9.7 | 0.00 | 0.00 | 0.00 | 84 | 1014.5 |
| 20260906095645 | 25 | 148 | 3.2 | 9.7 | 0.00 | 0.00 | 0.00 | 84 | 1014.4 |
| 20260906095145 | 25 | 144 | 3.2 | 11.3 | 0.00 | 0.00 | 0.00 | 84 | 1014.3 |
| 20260906093646 | 25 | 142 | 3.2 | 6.4 | 0.00 | 0.00 | 0.00 | 85 | 1014.4 |
| 20260906093145 | 25 | 129 | 1.6 | 6.4 | 0.00 | 0.00 | 0.00 | 84 | 1014.5 |
| 20260906092645 | 25 | 178 | 0.0 | 3.2 | 0.00 | 0.00 | 0.00 | 84 | 1014.5 |
| 20260906091634 | 25 | 162 | 1.6 | 6.4 | 0.00 | 0.00 | 0.00 | 84 | 1014.3 |
| 20260906091135 | 25 | 137 | 3.2 | 6.4 | 0.00 | 0.00 | 0.00 | 83 | 1014.3 |
| 20260906090135 | 25 | 178 | 1.6 | 4.8 | 0.00 | 0.00 | 0.00 | 83 | 1014.4 |
| 20260906085134 | 25 | 141 | 3.2 | 4.8 | 0.00 | 0.00 | 0.00 | 82 | 1014.5 |
| 20260906084133 | 26 | 144 | 3.2 | 4.8 | 0.00 | 0.00 | 0.00 | 82 | 1014.5 |
| 20260906083633 | 26 | 123 | 1.6 | 4.8 | 0.00 | 0.00 | 0.00 | 82 | 1014.4 |
| 20260906083134 | 26 | 103 | 3.2 | 6.4 | 0.00 | 0.00 | 0.00 | 81 | 1014.4 |
| 20260906082633 | 26 | 131 | 3.2 | 6.4 | 0.00 | 0.00 | 0.00 | 81 | 1014.4 |
| 20260906082132 | 26 | 132 | 3.2 | 6.4 | 0.00 | 0.00 | 0.00 | 81 | 1014.3 |
| 20260906081132 | 26 | 131 | 4.8 | 8.0 | 0.00 | 0.00 | 0.00 | 80 | 1014.2 |
| 20260906080631 | 26 | 131 | 3.2 | 8.0 | 0.00 | 0.00 | 0.00 | 80 | 1014.2 |
| 20260906080131 | 26 | 61 | 3.2 | 8.0 | 0.00 | 0.00 | 0.00 | 80 | 1014.2 |
| 20260906075630 | 26 | 128 | 3.2 | 8.0 | 0.00 | 0.00 | 0.00 | 80 | 1014.2 |
| 20260906075130 | 26 | 137 | 4.8 | 8.0 | 0.00 | 0.00 | 0.00 | 79 | 1014.2 |
| 20260906074630 | 26 | 128 | 3.2 | 11.3 | 0.00 | 0.00 | 0.00 | 80 | 1014.1 |
| 20260906074130 | 26 | 144 | 3.2 | 11.3 | 0.00 | 0.00 | 0.00 | 80 | 1014.0 |
| 20260906073630 | 26 | 108 | 3.2 | 9.7 | 0.00 | 0.00 | 0.00 | 80 | 1014.1 |
| 20260906073131 | 26 | 137 | 3.2 | 11.3 | 0.00 | 0.00 | 0.00 | 80 | 1013.9 |
| 20260906072629 | 26 | 117 | 3.2 | 11.3 | 0.00 | 0.00 | 0.00 | 80 | 1013.9 |
| 20260906072129 | 26 | 150 | 4.8 | 11.3 | 0.00 | 0.00 | 0.00 | 80 | 1013.9 |
| 20260906071129 | 26 | 124 | 4.8 | 11.3 | 0.00 | 0.00 | 0.00 | 80 | 1014.0 |
| 20260906070629 | 26 | 126 | 4.8 | 11.3 | 0.00 | 0.00 | 0.00 | 80 | 1014.1 |
| 20260906070129 | 26 | 117 | 4.8 | 11.3 | 0.00 | 0.00 | 0.00 | 80 | 1014.1 |
| 20260906065629 | 26 | 205 | 4.8 | 11.3 | 0.00 | 0.00 | 0.00 | 80 | 1014.2 |
| 20260906065127 | 27 | 160 | 4.8 | 11.3 | 0.00 | 0.00 | 0.00 | 80 | 1014.3 |
| 20260906064128 | 27 | 178 | 4.8 | 11.3 | 0.00 | 0.00 | 0.00 | 80 | 1014.3 |
| 20260906063628 | 27 | 205 | 4.8 | 11.3 | 0.00 | 0.00 | 0.00 | 79 | 1014.3 |
| 20260906063129 | 27 | 123 | 3.2 | 11.3 | 0.00 | 0.00 | 0.00 | 79 | 1014.3 |
| 20260906062627 | 27 | 170 | 6.4 | 11.3 | 0.00 | 0.00 | 0.00 | 79 | 1014.4 |
| 20260906062127 | 27 | 128 | 4.8 | 11.3 | 0.00 | 0.00 | 0.00 | 79 | 1014.3 |
| 20260906061627 | 27 | 132 | 4.8 | 11.3 | 0.00 | 0.00 | 0.00 | 79 | 1014.5 |
| 20260906061127 | 27 | 131 | 3.2 | 9.7 | 0.00 | 0.00 | 0.00 | 79 | 1014.4 |
| 20260906060627 | 27 | 51 | 1.6 | 8.0 | 0.00 | 0.00 | 0.00 | 78 | 1014.4 |
| 20260906060127 | 27 | 153 | 3.2 | 8.0 | 0.00 | 0.00 | 0.00 | 78 | 1014.3 |
| 20260906055628 | 27 | 132 | 4.8 | 8.0 | 0.00 | 0.00 | 0.00 | 78 | 1014.4 |
| 20260906055126 | 27 | 162 | 3.2 | 11.3 | 0.00 | 0.00 | 0.00 | 78 | 1014.5 |
| 20260906054627 | 27 | 153 | 3.2 | 11.3 | 0.00 | 0.00 | 0.00 | 77 | 1014.4 |
| 20260906054127 | 27 | 162 | 3.2 | 11.3 | 0.00 | 0.00 | 0.00 | 77 | 1014.4 |
| 20260906053624 | 27 | 137 | 4.8 | 11.3 | 0.00 | 0.00 | 0.00 | 77 | 1014.4 |
| 20260906053126 | 27 | 137 | 1.6 | 16.1 | 0.00 | 0.00 | 0.00 | 77 | 1014.4 |
| 20260906052123 | 28 | 96 | 6.4 | 16.1 | 0.00 | 0.00 | 0.00 | 77 | 1014.3 |
| 20260906051624 | 28 | 116 | 6.4 | 17.7 | 0.00 | 0.00 | 0.00 | 77 | 1014.3 |
| 20260906051124 | 28 | 133 | 9.7 | 17.7 | 0.00 | 0.00 | 0.00 | 77 | 1014.2 |
| 20260906050623 | 28 | 105 | 8.0 | 16.1 | 0.00 | 0.00 | 0.00 | 76 | 1014.3 |
| 20260906050124 | 28 | 115 | 8.0 | 17.7 | 0.00 | 0.00 | 0.00 | 76 | 1014.3 |
| 20260906045623 | 28 | 113 | 8.0 | 17.7 | 0.00 | 0.00 | 0.00 | 76 | 1014.3 |
| 20260906045123 | 28 | 117 | 8.0 | 16.1 | 0.00 | 0.00 | 0.00 | 76 | 1014.3 |
| 20260906044623 | 28 | 93 | 9.7 | 17.7 | 0.00 | 0.00 | 0.00 | 76 | 1014.3 |
| 20260906043122 | 28 | 117 | 8.0 | 17.7 | 0.00 | 0.00 | 0.00 | 75 | 1014.3 |
| 20260906042623 | 28 | 178 | 8.0 | 17.7 | 0.00 | 0.00 | 0.00 | 75 | 1014.3 |
| 20260906042122 | 28 | 140 | 6.4 | 14.5 | 0.00 | 0.00 | 0.00 | 74 | 1014.4 |
| 20260906041622 | 28 | 141 | 6.4 | 14.5 | 0.00 | 0.00 | 0.00 | 74 | 1014.5 |
| 20260906041121 | 28 | 137 | 3.2 | 17.7 | 0.00 | 0.00 | 0.00 | 74 | 1014.6 |
| 20260906040621 | 28 | 119 | 8.0 | 17.7 | 0.00 | 0.00 | 0.00 | 75 | 1014.4 |
| 20260906040122 | 28 | 123 | 6.4 | 16.1 | 0.00 | 0.00 | 0.00 | 75 | 1014.3 |
| 20260906035122 | 28 | 123 | 6.4 | 12.9 | 0.00 | 0.00 | 0.00 | 75 | 1014.3 |
| 20260906034620 | 28 | 325 | 4.8 | 12.9 | 0.00 | 0.00 | 0.00 | 75 | 1014.4 |
| 20260906034123 | 28 | 139 | 4.8 | 12.9 | 0.00 | 0.00 | 0.00 | 75 | 1014.3 |
| 20260906033621 | 28 | 98 | 4.8 | 11.3 | 0.00 | 0.00 | 0.00 | 75 | 1014.3 |
| 20260906033121 | 28 | 126 | 3.2 | 11.3 | 0.00 | 0.00 | 0.00 | 75 | 1014.3 |
| 20260906031620 | 28 | 113 | 4.8 | 9.7 | 0.00 | 0.00 | 0.00 | 75 | 1014.2 |
| 20260906031120 | 29 | 137 | 4.8 | 9.7 | 0.00 | 0.00 | 0.00 | 75 | 1014.2 |
| 20260906030620 | 29 | 106 | 3.2 | 12.9 | 0.00 | 0.00 | 0.00 | 75 | 1014.1 |
| 20260906030120 | 29 | 126 | 4.8 | 12.9 | 0.00 | 0.00 | 0.00 | 74 | 1014.0 |
| 20260906025620 | 29 | 110 | 4.8 | 14.5 | 0.00 | 0.00 | 0.00 | 74 | 1014.0 |
| 20260906025119 | 29 | 121 | 6.4 | 16.1 | 0.00 | 0.00 | 0.00 | 74 | 1013.8 |
| 20260906024619 | 29 | 126 | 6.4 | 16.1 | 0.00 | 0.00 | 0.00 | 74 | 1013.8 |
| 20260906023119 | 29 | 108 | 9.7 | 16.1 | 0.00 | 0.00 | 0.00 | 74 | 1013.5 |
| 20260906022118 | 29 | 126 | 4.8 | 14.5 | 0.00 | 0.00 | 0.00 | 74 | 1013.6 |
| 20260906021618 | 29 | 123 | 6.4 | 14.5 | 0.00 | 0.00 | 0.00 | 73 | 1013.5 |
| 20260906021118 | 30 | 153 | 4.8 | 12.9 | 0.00 | 0.00 | 0.00 | 73 | 1013.4 |
| 20260906020618 | 30 | 115 | 3.2 | 11.3 | 0.00 | 0.00 | 0.00 | 73 | 1013.4 |
| 20260906020118 | 30 | 119 | 4.8 | 14.5 | 0.00 | 0.00 | 0.00 | 72 | 1013.3 |
| 20260906015618 | 30 | 61 | 6.4 | 14.5 | 0.00 | 0.00 | 0.00 | 72 | 1013.1 |
| 20260906015117 | 30 | 109 | 4.8 | 9.7 | 0.00 | 0.00 | 0.00 | 72 | 1013.0 |
| 20260906014617 | 30 | 93 | 3.2 | 11.3 | 0.00 | 0.00 | 0.00 | 72 | 1013.0 |
| 20260906014118 | 30 | 98 | 4.8 | 11.3 | 0.00 | 0.00 | 0.00 | 71 | 1013.0 |
| 20260906013617 | 30 | 117 | 6.4 | 11.3 | 0.00 | 0.00 | 0.00 | 71 | 1012.8 |
| 20260906013117 | 30 | 111 | 4.8 | 9.7 | 0.00 | 0.00 | 0.00 | 70 | 1012.7 |
| 20260906012116 | 30 | 134 | 3.2 | 11.3 | 0.00 | 0.00 | 0.00 | 69 | 1012.6 |
| 20260906011617 | 30 | 51 | 3.2 | 11.3 | 0.00 | 0.00 | 0.00 | 69 | 1012.6 |
| 20260906010615 | 31 | 137 | 4.8 | 11.3 | 0.00 | 0.00 | 0.00 | 68 | 1012.5 |
| 20260906005615 | 31 | 93 | 3.2 | 14.5 | 0.00 | 0.00 | 0.00 | 67 | 1012.5 |
| 20260906005115 | 31 | 99 | 9.7 | 17.7 | 0.00 | 0.00 | 0.00 | 67 | 1012.5 |
| 20260906004615 | 31 | 107 | 11.3 | 17.7 | 0.00 | 0.00 | 0.00 | 67 | 1012.4 |
| 20260906003114 | 31 | 132 | 4.8 | 17.7 | 0.00 | 0.00 | 0.00 | 65 | 1012.5 |
| 20260906002613 | 31 | 126 | 4.8 | 19.3 | 0.00 | 0.00 | 0.00 | 65 | 1012.6 |
| 20260906002113 | 31 | 115 | 9.7 | 19.3 | 0.00 | 0.00 | 0.00 | 64 | 1012.4 |
| 20260906001613 | 32 | 139 | 9.7 | 24.1 | 0.00 | 0.00 | 0.00 | 64 | 1012.3 |
| 20260906001112 | 32 | 97 | 12.9 | 24.1 | 0.00 | 0.00 | 0.00 | 63 | 1012.2 |
| 20260906000612 | 32 | 123 | 14.5 | 22.5 | 0.00 | 0.00 | 0.00 | 63 | 1012.2 |
| 20260906000112 | 32 | 102 | 11.3 | 20.9 | 0.00 | 0.00 | 0.00 | 63 | 1012.2 |
| 20260905235113 | 32 | 117 | 12.9 | 22.5 | 0.00 | 0.00 | 0.00 | 61 | 1012.1 |
| 20260905234612 | 33 | 121 | 6.4 | 17.7 | 0.00 | 0.00 | 0.00 | 61 | 1012.1 |
| 20260905234112 | 33 | 130 | 6.4 | 17.7 | 0.00 | 0.00 | 0.00 | 61 | 1012.2 |
| 20260905233611 | 33 | 149 | 6.4 | 16.1 | 0.00 | 0.00 | 0.00 | 61 | 1012.2 |
| 20260905233111 | 33 | 156 | 6.4 | 16.1 | 0.00 | 0.00 | 0.00 | 61 | 1012.2 |
| 20260905232611 | 33 | 123 | 9.7 | 19.3 | 0.00 | 0.00 | 0.00 | 60 | 1012.2 |
| 20260905231109 | 33 | 178 | 9.7 | 17.7 | 0.00 | 0.00 | 0.00 | 60 | 1012.3 |
| 20260905230610 | 33 | 129 | 9.7 | 17.7 | 0.00 | 0.00 | 0.00 | 60 | 1012.2 |
| 20260905230108 | 33 | 139 | 9.7 | 14.5 | 0.00 | 0.00 | 0.00 | 58 | 1012.2 |
| 20260905225605 | 33 | 209 | 4.8 | 17.7 | 0.00 | 0.00 | 0.00 | 57 | 1012.3 |
| 20260905225104 | 33 | 162 | 4.8 | 17.7 | 0.00 | 0.00 | 0.00 | 58 | 1012.2 |
| 20260905224602 | 33 | 139 | 4.8 | 17.7 | 0.00 | 0.00 | 0.00 | 58 | 1012.2 |
| 20260905224104 | 33 | 205 | 6.4 | 17.7 | 0.00 | 0.00 | 0.00 | 57 | 1012.2 |
| 20260905223601 | 33 | 237 | 8.0 | 16.1 | 0.00 | 0.00 | 0.00 | 56 | 1012.2 |
| 20260905223101 | 33 | 173 | 9.7 | 16.1 | 0.00 | 0.00 | 0.00 | 57 | 1012.2 |
| 20260905222601 | 33 | 184 | 6.4 | 16.1 | 0.00 | 0.00 | 0.00 | 57 | 1012.1 |
| 20260905222101 | 33 | 208 | 6.4 | 20.9 | 0.00 | 0.00 | 0.00 | 58 | 1012.0 |
| 20260905221600 | 33 | 151 | 9.7 | 20.9 | 0.00 | 0.00 | 0.00 | 57 | 1011.9 |
| 20260905221101 | 33 | 173 | 9.7 | 16.1 | 0.00 | 0.00 | 0.00 | 57 | 1011.8 |
| 20260905220600 | 33 | 137 | 4.8 | 16.1 | 0.00 | 0.00 | 0.00 | 59 | 1011.8 |
| 20260905220100 | 33 | 144 | 9.7 | 19.3 | 0.00 | 0.00 | 0.00 | 58 | 1011.8 |
| 20260905215600 | 33 | 163 | 8.0 | 27.4 | 0.00 | 0.00 | 0.00 | 58 | 1011.7 |
| 20260905215100 | 33 | 130 | 14.5 | 27.4 | 0.00 | 0.00 | 0.00 | 56 | 1011.8 |
| 20260905214600 | 33 | 132 | 11.3 | 20.9 | 0.00 | 0.00 | 0.00 | 56 | 1011.8 |
| 20260905214101 | 33 | 141 | 8.0 | 20.9 | 0.00 | 0.00 | 0.00 | 57 | 1011.9 |
| 20260905213600 | 33 | 144 | 8.0 | 20.9 | 0.00 | 0.00 | 0.00 | 58 | 1012.0 |
| 20260905213058 | 33 | 113 | 6.4 | 20.9 | 0.00 | 0.00 | 0.00 | 57 | 1012.2 |
| 20260905212558 | 33 | 155 | 8.0 | 22.5 | 0.00 | 0.00 | 0.00 | 56 | 1012.2 |
| 20260905212058 | 33 | 184 | 8.0 | 22.5 | 0.00 | 0.00 | 0.00 | 55 | 1012.2 |
| 20260905211558 | 33 | 130 | 11.3 | 20.9 | 0.00 | 0.00 | 0.00 | 55 | 1012.2 |
| 20260905210057 | 32 | 128 | 12.9 | 25.7 | 0.00 | 0.00 | 0.00 | 56 | 1012.5 |
| 20260905205057 | 32 | 131 | 12.9 | 20.9 | 0.00 | 0.00 | 0.00 | 56 | 1012.6 |
| 20260905204058 | 32 | 144 | 14.5 | 22.5 | 0.00 | 0.00 | 0.00 | 57 | 1012.8 |
| 20260905203556 | 32 | 133 | 16.1 | 22.5 | 0.00 | 0.00 | 0.00 | 56 | 1012.9 |
| 20260905203056 | 32 | 212 | 8.0 | 20.9 | 0.00 | 0.00 | 0.00 | 58 | 1013.0 |
| 20260905202556 | 32 | 40 | 11.3 | 22.5 | 0.00 | 0.00 | 0.00 | 57 | 1013.3 |
| 20260905202055 | 32 | 99 | 12.9 | 24.1 | 0.00 | 0.00 | 0.00 | 57 | 1013.3 |
| 20260905201556 | 32 | 123 | 12.9 | 24.1 | 0.00 | 0.00 | 0.00 | 56 | 1013.4 |
| 20260905201055 | 32 | 132 | 9.7 | 24.1 | 0.00 | 0.00 | 0.00 | 58 | 1013.6 |
| 20260905200055 | 32 | 133 | 12.9 | 25.7 | 0.00 | 0.00 | 0.00 | 58 | 1014.0 |
| 20260905195555 | 32 | 137 | 9.7 | 25.7 | 0.00 | 0.00 | 0.00 | 58 | 1014.2 |
| 20260905194554 | 32 | 128 | 9.7 | 17.7 | 0.00 | 0.00 | 0.00 | 58 | 1014.5 |
| 20260905194055 | 32 | 51 | 6.4 | 19.3 | 0.00 | 0.00 | 0.00 | 58 | 1014.7 |
| 20260905193554 | 32 | 123 | 9.7 | 19.3 | 0.00 | 0.00 | 0.00 | 59 | 1014.6 |
| 20260905193054 | 31 | 133 | 11.3 | 20.9 | 0.00 | 0.00 | 0.00 | 58 | 1014.7 |
| 20260905192554 | 31 | 38 | 9.7 | 20.9 | 0.00 | 0.00 | 0.00 | 56 | 1014.6 |
| 20260905192053 | 31 | 98 | 9.7 | 20.9 | 0.00 | 0.00 | 0.00 | 58 | 1014.5 |
| 20260905191554 | 31 | 110 | 9.7 | 19.3 | 0.00 | 0.00 | 0.00 | 59 | 1014.6 |
| 20260905191054 | 31 | 93 | 11.3 | 22.5 | 0.00 | 0.00 | 0.00 | 57 | 1014.7 |
| 20260905190553 | 31 | 80 | 9.7 | 25.7 | 0.00 | 0.00 | 0.00 | 58 | 1014.8 |
| 20260905190053 | 31 | 92 | 17.7 | 25.7 | 0.00 | 0.00 | 0.00 | 58 | 1014.9 |
| 20260905185553 | 31 | 131 | 4.8 | 24.1 | 0.00 | 0.00 | 0.00 | 63 | 1015.1 |
| 20260905185051 | 31 | 123 | 11.3 | 24.1 | 0.00 | 0.00 | 0.00 | 62 | 1015.3 |
| 20260905184551 | 31 | 124 | 14.5 | 24.1 | 0.00 | 0.00 | 0.00 | 63 | 1015.6 |
| 20260905183548 | 31 | 51 | 9.7 | 25.7 | 0.00 | 0.00 | 0.00 | 64 | 1015.6 |
| 20260905183048 | 31 | 27 | 9.7 | 22.5 | 0.00 | 0.00 | 0.00 | 66 | 1015.8 |
| 20260905182549 | 31 | 160 | 6.4 | 24.1 | 0.00 | 0.00 | 0.00 | 69 | 1015.8 |
| 20260905182049 | 31 | 117 | 14.5 | 33.8 | 0.00 | 0.00 | 0.00 | 67 | 1015.7 |
| 20260905181549 | 31 | 129 | 9.7 | 33.8 | 0.00 | 0.00 | 0.00 | 67 | 1015.8 |
| 20260905181048 | 31 | 341 | 8.0 | 20.9 | 0.00 | 0.00 | 0.00 | 66 | 1016.0 |
| 20260905180548 | 31 | 21 | 11.3 | 25.7 | 0.00 | 0.00 | 0.00 | 67 | 1016.0 |
| 20260905180049 | 31 | 142 | 8.0 | 25.7 | 0.00 | 0.00 | 0.00 | 68 | 1015.9 |
| 20260905175548 | 31 | 105 | 8.0 | 24.1 | 0.00 | 0.00 | 0.00 | 70 | 1015.9 |
| 20260905175048 | 30 | 344 | 9.7 | 24.1 | 0.00 | 0.00 | 0.00 | 69 | 1015.8 |
| 20260905174548 | 30 | 15 | 6.4 | 19.3 | 0.00 | 0.00 | 0.00 | 70 | 1015.8 |
| 20260905174049 | 30 | 110 | 9.7 | 19.3 | 0.00 | 0.00 | 0.00 | 72 | 1015.8 |
| 20260905173547 | 30 | 123 | 8.0 | 29.0 | 0.00 | 0.00 | 0.00 | 72 | 1015.9 |
| 20260905173047 | 30 | 347 | 9.7 | 29.0 | 0.00 | 0.00 | 0.00 | 70 | 1015.8 |
| 20260905172547 | 30 | 319 | 11.3 | 25.7 | 0.00 | 0.00 | 0.00 | 70 | 1015.8 |
| 20260905172047 | 30 | 34 | 8.0 | 27.4 | 0.00 | 0.00 | 0.00 | 71 | 1016.0 |
| 20260905171546 | 30 | 23 | 8.0 | 27.4 | 0.00 | 0.00 | 0.00 | 70 | 1016.0 |
| 20260905171046 | 30 | 80 | 6.4 | 19.3 | 0.00 | 0.00 | 0.00 | 71 | 1015.9 |
| 20260905170546 | 30 | 109 | 6.4 | 19.3 | 0.00 | 0.00 | 0.00 | 70 | 1016.1 |
| 20260905170046 | 30 | 13 | 3.2 | 22.5 | 0.00 | 0.00 | 0.00 | 73 | 1015.9 |
| 20260905165546 | 30 | 26 | 11.3 | 22.5 | 0.00 | 0.00 | 0.00 | 71 | 1015.9 |
| 20260905165046 | 30 | 9 | 12.9 | 20.9 | 0.00 | 0.00 | 0.00 | 69 | 1016.1 |
| 20260905163545 | 30 | 24 | 6.4 | 17.7 | 0.00 | 0.00 | 0.00 | 70 | 1016.1 |
| 20260905163045 | 30 | 334 | 6.4 | 17.7 | 0.00 | 0.00 | 0.00 | 70 | 1016.1 |
| 20260905162545 | 30 | 48 | 6.4 | 22.5 | 0.00 | 0.00 | 0.00 | 73 | 1016.2 |
| 20260905162045 | 30 | 11 | 11.3 | 22.5 | 0.00 | 0.00 | 0.00 | 72 | 1016.1 |
| 20260905161544 | 30 | 36 | 6.4 | 17.7 | 0.00 | 0.00 | 0.00 | 71 | 1016.1 |
| 20260905161045 | 31 | 316 | 4.8 | 27.4 | 0.00 | 0.00 | 0.00 | 73 | 1016.1 |
| 20260905160545 | 31 | 13 | 16.1 | 27.4 | 0.00 | 0.00 | 0.00 | 72 | 1016.2 |
| 20260905160044 | 31 | 334 | 8.0 | 14.5 | 0.00 | 0.00 | 0.00 | 70 | 1015.9 |